Tracking 32938 objects as of 14-Jan-2026
HD Live streaming from Space Station
objects crossing your sky now

CZ-4 DEB

Track CZ-4 DEB now!
10-day predictions


NORAD ID: 20881
Int'l Code: 1990-081AR
Perigee: 696.2 km
Apogee: 797.6 km
Inclination: 98.5 °
Period: 99.6 minutes
Semi major axis: 7117 km
RCS: 0.1863 m2 (medium)
Launch date: September 3, 1990
Source: People's Republic of China (PRC)
Launch site: Taiyaun Space Center, China (TSC)

Note: This is SATELLITE DEBRIS
Your satellite tracking list
Your tracking list is empty




NASA's NSSDC Master Catalog

Two Line Element Set (TLE):
1 20881U 90081AR  26013.50846599  .00001829  00000-0  51364-3 0  9997
2 20881  98.4750  23.6517 0071224  25.9793 334.4946 14.45698615829820
Source of the keplerian elements: AFSPC